Regional Weather Roundup
Issued by NWS Northern Indiana

Home | Current Version | Previous Version | Text Only | Print | Product List | Glossary Off
Versions: 1 2 3 4 5 6 7 8 9 10 11 12 13 14 15 16 17 18 19 20 21 22 23 24 25 26 27 28 29 30 31 32 33 34 35 36 37 38 39 40 41 42 43 44 45 46 47 48 49 50

000
ASUS43 KIWX 291500
RWRIWX

KIWX WEATHER ROUNDUP
NATIONAL WEATHER SERVICE NORTHERN INDIANA
1100 AM EDT FRI APR 29 2016

NOTE: "FAIR" INDICATES FEW OR NO CLOUDS BELOW 12,000 FEET WITH NO
SIGNIFICANT WEATHER AND/OR OBSTRUCTIONS TO VISIBILITY.

* THESE STATIONS ARE NOT UNDER NWS QUALITY CONTROL. THEY ALSO MAY NOT
  REPORT WEATHER SUCH AS PRECIPITATION OR FOG.

INZ001>027-291600-
NORTHERN INDIANA

CITY           SKY/WX    TMP DP  RH WIND       PRES   REMARKS
GARY*          CLOUDY    46  46 100 NW7       30.12R FOG
SOUTH BEND     CLOUDY    45  43  93 CALM      30.07R FOG
GOSHEN         CLOUDY    47  42  83 CALM      30.07R
ANGOLA*        CLOUDY    45  34  65 CALM      30.05R
FORT WAYNE     LGT RAIN  46  43  89 CALM      30.07R FOG

$$
INZ028>050-291600-
CENTRAL INDIANA

CITY           SKY/WX    TMP DP  RH WIND       PRES   REMARKS
LAFAYETTE      CLOUDY    51  46  83 NW10      30.07R HAZE
KOKOMO*        CLOUDY    52  46  82 NW12      30.05R
MUNCIE*        CLOUDY    56  48  74 NW8       30.04R
INDIANAPOLIS   PTSUNNY   57  47  69 NW9       30.05R

$$
MIZ043>046-050>051-056>058-064>065-071>073-077>080-291600-
SOUTHWEST LOWER MICHIGAN

CITY           SKY/WX    TMP DP  RH WIND       PRES   REMARKS
BATTLE CREEK   CLOUDY    45  38  76 NE7       30.06F
BENTON HARBOR  CLOUDY    48  42  80 CALM      30.05R
COLDWATER*     FLURRIES  44  39  83 CALM      30.05R
HILLSDALE*     CLOUDY    46  36  69 N7        30.04S
HOLLAND        CLOUDY    45  39  79 E7        30.08S
GRAND RAPIDS   CLOUDY    44  37  76 NE13      30.08S
KALAMAZOO      CLOUDY    46  40  79 VRB5      30.06S
STURGIS*       CLOUDY    44  41  88 NE5       30.04R
THREE RIVERS*  CLOUDY    45  43  91 E5        30.06R

$$
OHZ001>008-015>018-024>025-291600-
NORTHWEST OHIO

CITY           SKY/WX    TMP DP  RH WIND       PRES   REMARKS
DEFIANCE       CLOUDY    49  38  65 NW5       30.05R
FINDLAY        CLOUDY    50  40  68 VRB3      30.01F
TOLEDO EXPRESS CLOUDY    50  35  56 NE3       30.03F
TOLEDO METCALF CLOUDY    48  37  65 NE8       30.04F
LIMA           CLOUDY    48  44  86 CALM      30.03R

$$
AND FOR LAKE MICHIGAN COASTAL AND OPEN LAKE BUOY OBSERVATIONS

STATION/POSITION TEMP    WIND        PRES    VSBY  WAVE
                 AIR SEA DIR/SP/G                  HT/PER
                 (F)     (DEG/KT/KT) (MB)    (MI)  (FT/S)
CALUMET HARBOR    42     340/ 14/ 17 1017.2F
MICHIGAN CITY     41     290/ 13/ 14   N/A
BURNS HARBOR      42     340/ 10/ 16 1018.6S
SAINT JOSEPH      47     360/  3/  8 1017.9R
SOUTH LAKE BUOY   40 40   30/  8/ 10 1018.9          1/ 3
4 MI NW BRIDGMAN  44 46     CALM       N/A           1/ 2

$$
&&




USA.gov is the U.S. government's official web portal to all federal, state and local government web resources and services.